SCP
0 0 0 0 0 0 0 0 0 0 0 0 0 0 0 0 0 0 0 0 0 0 0 0 0 0 0 0 0 0 0 0 0 0 0 0 0 0 0 0 0 0 0
0 0 0 0 0 0 0 0 0 0 0 0 0 0 0 0 0 0 0 0 0 0 0 0 0 0 0 0 0 0 0 0 0 0 0 0 0 0 0 0 0 0 0
0 0 0 0 0 0 0 0 0 0 0 0 0 0 0 0 0 0 0 0 0 0 0 0 0 0 0 0 0 0 0 0 0 0 0 0 0 0 0 0 0 0 0
0 0 0 0 0 0 0 0 0 0 0 0 0 0 0 0 0 0 0 0 0 0 0 0 0 0 0 0 0 0 0 0 0 0 0 0 0 0 0 0 0 0 0
0 0 0 0 0 0 0 0 0 0 0 0 0 0 0 0 0 0 0 0 0 0 0 0 0 0 0 0 0 0 0 0 0 0 0 0 0 0 0 0 0 0 0
0 0 0 0 0 0 0 0 0 0 0 0 0 0 0 0 0 0 0 0 0 0 0 0 0 0 0 0 0 0 0 0 0 0 0 0 0 0 0 0 0 0 0
0 0 0 0 0 0 0 0 0 0 0 0 0 0 0 0 0 0 0 0 0 0 0 0 0 0 0 0 0 0 0 0 0 0 0 0 0 0 0 0 0 0 0
0 0 0 0 0 0 0 0 0 0 0 0 0 0 0 0 0 0 0 0 0 0 0 0 0 0 0 0 0 0 0 0 0 0 0 0 0 0 0 0 0 0 0
0 0 0 0 0 0 0 0 0 0 0 0 0 0 0 0 0 0 0 0 0 0 0 0 0 0 0 0 0 0 0 0 0 0 0 0 0 0 0 0 0 0 0
0 0 0 0 0 0 0 0 0 0 0 0 0 0 0 0 0 0 0 0 0 0 0 0 0 0 0 0 0 0 0 0 0 0 0 0 0 0 0 0 0 0 0
0 0 0 0 0 0 0 0 0 0 0 0 0 0 0 0 0 0 0 0 0 0 0 0 0 0 0 0 0 0 0 0 0 0 0 0 0 0 0 0 0 0 0
0 0 0 0 0 0 0 0 0 0 0 0 0 0 0 0 0 0 0 0 0 0 0 0 0 0 0 0 0 0 0 0 0 0 0 0 0 0 0 0 0 0 0
0 0 0 0 0 0 0 0 0 0 0 0 0 0 0 0 0 0 0 0 0 0 0 0 0 0 0 0 0 0 0 0 0 0 0 0 0 0 0 0 0 0 0
0 0 0 0 0 0 0 0 0 0 0 0 0 0 0 0 0 0 0 0 0 0 0 0 0 0 0 0 0 0 0 0 0 0 0 0 0 0 0 0 0 0 0
0 0 0 0 0 0 0 0 0 0 0 0 0 0 0 0 0 0 0 0 0 0 0 0 0 0 0 0 0 0 0 0 0 0 0 0 0 0 0 0 0 0 0
0 0 0 0 0 0 0 0 0 0 0 0 0 0 0 0 0 0 0 0 0 0 0 0 0 0 0 0 0 0 0 0 0 0 0 0 0 0 0 0 0 0 0
0 0 0 0 0 0 0 0 0 0 0 0 0 0 0 0 0 0 0 0 0 0 0 0 0 0 0 0 0 0 0 0 0 0 0 0 0 0 0 0 0 0 0
-0 -0 0 0 0 0 0 0 0 0 0 0 0 0 0 0 0 0 0 0 0 0 0 0 0 0 0 0 0 0 0 0 0 0 0 0 0 0 0 0 0 0 0
-0 -0 0 0 0 0 0 0 0 -0 -0 0 0 0 0 0 0 0 0 0 0 0 0 0 0 0 0 0 0 0 0 0 0 0 0 0 0 0 0 0 0 0 0
-0 -0 0 0 0 0 0 0 0 0 0 0 0 0 0 0 0 0 0 0 0 0 0 0 0 0 0 0 0 0 0 0 0 0 0 0 0 0 0 0 0 0 0
0 0 0 0 0 0 0 0 0 0 0 0 0 0 0 0 0 0 0 0 0 0 0 0 0 0 0 0 0 0 0 0 0 0 0 0 0 0 0 0 0 0 0
0 0 0 0 0 0 0 0 0 0 0 0 0 0 0 0 0 0 0 0 0 0 0 0 0 0 0 0 0 0 0 0 0 0 0 0 0 0 0 0 0 0 0
0 0 0 0 0 0 0 0 0 0 0 0 0 0 0 0 0 0 0 0 0 0 0 0 0 0 0 0 0 0 0 0 0 0 0 0 0 0 0 0 0 0 0
0 0 0 0 0 0 0 0 0 0 0 0 0 0 0 0 0 0 0 0 0 0 0 0 0 0 0 0 0 0 0 0 0 0 0 0 0 0 0 0 0 0 0
0 0 0 0 0 0 0 0 0 0 0 0 0 0 0 0 0 0 0 0 0 0 0 0 0 0 0 0 0 0 0 0 0 0 0 0 0 0 0 0 0 0 0
0 0 0 0 0 0 0 0 0 0 0 0 0 0 0 0 0 0 0 0 0 0 0 0 0 0 0 0 0 0 0 0 0 0 0 0 0 0 0 0 0 0 0
Wind_Speed
4 5 8 7 9 9 9 9 10 10 10 10 10 10 10 10 10 9 9 9 9 9 8 8 8 8 8 8 7 7 8 8 7 7 7 7 7 6 6 5 2 3 6
5 6 9 8 9 9 9 10 10 10 10 10 10 10 10 10 10 9 9 9 8 8 8 8 8 7 7 7 7 7 7 6 6 6 5 6 7 7 6 6 7 6 5
6 7 9 9 9 10 10 10 10 10 10 10 10 10 9 9 9 8 8 8 7 7 8 8 7 7 7 7 6 6 6 6 5 4 1 3 6 7 6 6 6 6 5
7 8 10 10 10 10 11 11 11 11 10 10 10 9 9 8 7 7 7 7 7 7 7 6 6 6 6 6 6 6 6 5 4 1 1 4 5 8 6 6 6 6 6
8 8 10 10 11 11 11 11 11 10 10 10 9 9 8 8 7 6 6 6 6 6 6 5 5 5 5 6 5 5 5 5 2 1 4 4 4 7 6 6 6 6 6
8 9 11 10 11 11 11 11 11 10 10 9 9 8 8 7 7 6 5 5 5 5 5 5 5 4 5 5 5 5 5 2 2 3 3 3 4 6 5 5 5 6 6
9 10 11 11 11 11 11 11 10 10 10 9 9 8 7 7 7 6 6 5 5 4 4 4 3 3 4 4 4 5 4 1 1 3 3 4 6 6 5 5 5 6 6
9 9 11 11 11 10 10 10 10 9 9 9 8 7 7 6 6 5 5 5 4 4 4 3 3 3 3 4 4 4 4 4 3 3 3 5 7 5 5 5 6 6 6
8 8 8 9 10 10 10 9 9 9 8 8 7 7 6 6 6 6 5 5 4 4 4 4 3 3 4 4 4 4 4 3 1 2 3 5 6 5 6 6 6 6 6
8 7 7 7 7 7 8 10 8 8 8 7 7 6 5 5 5 4 4 6 5 4 4 4 4 5 5 4 4 4 1 4 1 2 3 7 6 6 6 6 6 6 6
7 6 6 6 6 6 7 7 6 6 6 3 5 5 0 3 5 4 9 7 6 6 5 5 5 5 4 6 4 2 3 1 3 3 5 8 6 6 6 6 7 7 7
7 7 6 6 5 6 5 4 3 4 4 4 5 4 3 4 4 4 7 6 5 5 4 4 3 4 4 4 6 4 1 2 3 4 7 8 7 8 7 7 7 7 7
6 6 5 5 5 5 4 3 3 3 3 4 5 5 3 3 2 2 2 4 4 3 3 5 4 2 2 3 2 3 3 3 3 4 8 9 9 8 9 8 8 8 7
5 5 4 4 4 4 4 3 3 3 3 4 4 5 4 3 3 3 2 3 3 2 2 2 2 4 4 5 5 4 5 3 4 5 8 10 10 9 9 9 9 8 8
5 4 4 3 3 4 4 2 3 4 4 5 3 4 4 3 3 3 3 2 3 3 3 3 3 5 4 6 5 5 6 6 6 6 6 11 11 11 11 10 9 9 9
5 5 5 4 3 3 4 3 4 4 4 4 4 4 4 3 3 2 3 3 3 3 3 3 5 5 5 5 6 6 6 6 7 6 6 8 11 12 12 11 11 10 10
6 5 5 4 4 4 5 5 4 3 4 4 4 5 5 5 4 3 3 3 3 3 4 3 5 5 5 6 6 6 6 6 6 7 6 5 7 11 12 12 12 12 11
6 6 6 4 4 5 5 4 4 4 4 4 4 4 6 6 5 4 3 3 3 3 3 3 3 4 5 5 5 5 6 5 7 7 6 6 5 5 9 12 12 13 13
6 6 6 6 5 5 5 4 4 5 4 4 4 4 5 6 5 4 3 3 3 3 3 3 4 4 5 5 5 5 5 5 6 6 7 7 7 6 5 7 9 12 13
5 5 6 6 5 6 4 4 4 4 4 4 4 5 6 5 5 5 3 4 3 3 3 4 5 5 5 4 6 6 6 5 5 6 6 6 7 8 7 7 5 7 12
6 6 6 7 7 5 4 3 3 4 3 4 4 6 5 5 5 5 3 5 3 4 4 5 4 6 4 4 5 6 6 7 6 6 5 5 7 7 7 7 7 6 5
7 7 7 7 6 5 3 3 3 3 3 4 3 4 5 6 6 4 5 4 4 3 4 4 3 3 3 1 1 3 4 5 5 6 5 5 6 6 7 8 8 8 7
8 8 6 7 7 6 5 3 3 4 3 3 4 4 5 5 5 5 6 4 4 3 3 3 3 3 3 2 2 2 1 3 3 4 6 6 6 6 6 7 9 8 8
9 8 7 7 7 6 5 4 4 3 3 4 3 4 4 5 5 5 5 5 5 4 3 3 3 2 2 2 2 3 3 3 1 3 3 5 6 7 7 6 7 8 9
9 7 7 7 7 6 5 4 4 3 3 3 3 4 4 5 5 5 5 5 5 4 4 4 3 2 2 2 2 2 3 2 1 2 3 3 4 5 6 7 6 6 8
9 8 7 7 7 6 6 6 4 5 4 4 4 4 3 4 4 5 5 5 5 5 5 4 4 4 3 3 2 2 2 2 2 2 3 3 3 4 5 6 6 6 6
Wind_Direction
71 76 79 96 104 103 104 107 105 103 103 103 102 100 97 97 96 92 88 84 82 81 81 80 79 81 83 85 85 84 82 78 77 74 76 75 69 65 63 55 18 79 58
82 84 85 88 98 103 106 104 103 102 101 99 97 94 92 93 94 91 87 84 82 81 79 76 74 76 80 80 81 83 82 80 78 74 79 94 76 59 55 47 27 40 41
85 89 95 88 95 100 100 96 97 96 95 94 93 91 89 88 87 87 85 82 80 79 78 75 71 72 76 76 74 77 81 83 81 82 172 88 89 66 48 45 42 39 34
83 84 83 89 92 93 92 91 91 91 91 90 90 88 86 87 88 86 85 83 83 78 76 76 73 72 75 75 75 77 80 83 81 256 114 64 67 68 47 43 39 33 31
87 87 89 89 90 90 89 89 89 88 87 88 88 86 83 81 83 86 86 86 86 82 75 74 74 74 73 72 73 77 78 81 101 285 57 57 60 65 47 41 33 28 25
94 93 92 90 91 90 89 87 87 86 86 85 83 81 79 78 76 76 78 84 86 87 81 77 76 77 71 65 71 74 74 74 225 73 62 60 67 65 45 36 29 26 18
94 93 95 88 88 87 86 86 83 82 80 78 77 76 75 74 71 70 71 79 83 88 91 87 84 86 79 69 73 75 71 4 52 79 75 66 63 52 42 36 29 25 18
94 94 98 93 85 82 81 81 78 76 75 73 72 73 72 72 70 68 70 75 80 84 93 96 90 87 83 76 76 74 57 312 108 83 77 73 59 46 40 34 29 24 17
100 99 98 102 102 94 81 74 73 70 68 66 63 64 67 64 64 65 66 67 78 86 90 92 93 94 96 88 84 81 72 345 1 78 80 70 58 43 41 36 30 26 22
106 103 100 97 94 96 95 78 67 64 60 62 63 61 71 100 94 83 83 70 69 82 87 87 92 94 92 88 86 91 122 239 66 80 66 70 50 41 40 37 31 28 24
110 107 104 100 91 85 82 86 84 84 70 86 96 87 127 81 81 95 64 63 65 75 79 81 90 100 120 122 105 119 224 145 86 58 57 54 45 44 41 36 31 28 27
120 110 103 99 94 87 77 85 72 69 66 50 55 61 61 59 56 58 97 81 76 81 102 91 108 170 209 144 139 193 163 108 97 76 67 46 44 44 42 38 32 28 30
117 112 106 99 92 85 84 66 56 57 62 64 59 68 64 69 87 74 94 120 114 137 126 136 177 139 123 93 107 117 85 78 70 67 66 46 41 43 42 39 35 32 32
130 119 114 109 103 84 73 68 64 61 58 58 57 57 58 57 49 63 65 66 83 84 78 94 93 108 102 112 113 108 100 74 65 69 66 48 43 43 43 38 32 32 35
134 137 120 110 93 86 75 67 70 63 51 68 55 52 52 54 59 70 80 75 76 81 98 96 100 96 94 88 87 88 86 80 73 69 79 60 46 42 42 39 36 38 42
147 139 130 131 111 100 99 85 69 69 74 61 59 55 53 56 59 66 85 78 78 76 72 91 98 102 90 84 81 82 79 79 73 67 74 82 63 47 41 38 38 42 42
148 144 131 128 116 97 85 76 73 68 65 62 59 55 59 52 56 70 70 79 78 88 93 86 95 97 99 100 91 83 75 66 68 67 64 64 78 66 49 40 40 42 41
156 149 141 141 128 107 100 92 82 71 65 63 61 52 54 57 58 63 67 73 74 85 100 104 101 100 99 97 90 85 86 74 68 64 64 63 55 62 63 46 41 39 36
157 153 144 138 131 117 111 105 89 80 67 64 64 54 47 51 55 69 59 64 83 90 98 106 97 101 101 101 101 91 82 72 67 64 63 60 60 53 54 67 55 45 37
154 155 142 136 137 126 125 117 105 88 76 67 63 58 46 45 49 62 75 80 80 94 94 98 102 97 101 107 99 89 79 78 69 61 58 60 55 54 45 42 50 63 49
162 165 153 155 147 144 137 129 111 98 88 78 64 55 54 54 55 60 56 68 67 88 97 109 111 115 109 114 114 108 94 76 70 64 54 55 58 53 53 46 40 33 54
173 177 167 158 153 149 128 110 107 99 87 77 77 71 56 56 52 54 59 74 78 89 93 99 114 117 113 114 135 140 127 107 70 59 59 53 51 51 48 47 47 41 34
182 181 171 157 157 153 144 128 127 120 124 114 95 73 54 51 52 52 55 59 69 84 91 92 120 129 124 102 33 351 72 101 109 74 55 57 51 46 47 43 44 39 39
184 180 175 163 163 155 158 156 145 131 110 94 91 91 85 64 61 56 59 56 66 69 86 94 81 110 127 120 91 32 25 70 133 122 88 67 57 49 45 43 41 39 38
176 177 179 167 166 163 167 154 164 137 120 117 114 104 96 80 66 63 61 64 68 71 70 71 75 69 86 68 80 86 77 75 33 98 102 91 75 57 46 42 43 39 37
176 174 177 174 171 169 176 174 168 145 144 134 130 118 111 100 82 74 66 69 70 71 72 72 78 78 66 67 64 76 81 70 73 87 107 103 81 67 56 46 40 39 40